Location: Breita
(47.2210°N, 9.5469°E)
Time: 01:42:00
(UTC+00:00)

Daily predictions for brighter satellites

Satellite Brightness Start Highest point End
(mag) Time Altitude Azimuth Time Altitude Azimuth Time Altitude Azimuth
Okean 2 Rocket 3.3 00:00:20 10° NNW 00:04:32 53° W 00:04:32 53° W
Cosmos 2151 Rocket 3.6 00:01:27 10° NNW 00:05:58 68° W 00:06:04 67° WSW
Cosmos 1766 3.8 00:03:18 10° NNW 00:06:41 49° WNW 00:06:41 49° WNW
MOZ.5/SAFIR/RUBIN 5/SL-8 4.5 00:07:50 35° ESE 00:09:20 48° ENE 00:13:48 10° N
NOSS 2-1 (C) 4.4 00:08:11 10° NW 00:13:08 55° SW 00:14:12 49° SSW
COSMOS 2487 4.0 00:12:58 10° NW 00:14:48 26° NW 00:14:48 26° NW
Helios 1A 2.8 00:16:33 75° SE 00:16:51 82° ENE 00:21:01 10° NNW
USA 276 4.2 00:20:13 22° ENE 00:20:13 22° ENE 00:21:32 10° ENE
Cosmos 2227 Rocket 3.1 00:13:25 10° NNW 00:18:51 45° NE 00:23:59 11° SE
Cosmos 2297 Rocket 2.6 00:16:03 10° NNW 00:21:40 59° ENE 00:25:29 21° SE
Meteor 1-21 4.4 00:25:20 44° SSE 00:27:12 71° E 00:32:59 10° NNE
Cosmos 1470 2.6 00:23:47 10° N 00:27:43 89° ENE 00:27:45 88° SE
USA 81 4.4 00:23:38 10° NNW 00:28:44 50° W 00:29:41 44° WSW
YAOGAN 11 3.9 00:28:55 67° SW 00:29:08 69° WSW 00:33:26 10° NNW
Cosmos 2100 Rocket 4.2 00:24:20 10° N 00:30:38 68° E 00:33:57 30° SSE
Cosmos 1726 2.1 00:27:25 10° N 00:30:58 81° NNE 00:30:58 81° NNE
Cosmos 1674 4.4 00:31:30 22° ESE 00:32:20 24° E 00:35:29 10° NE
BREEZE-M DEB (TANK) 3.8 00:32:59 31° SE 00:33:54 33° SE 00:42:55 10° ENE
Meteor 2-20 Rocket 4.4 00:33:02 41° S 00:35:21 80° E 00:41:33 10° NNE
UNK 4.4 00:38:05 26° SE 00:40:21 50° ENE 00:44:47 10° N
Cosmos 1400 Rocket 3.5 00:36:51 10° NNW 00:40:30 42° W 00:40:30 42° W
Cosmos 1975 Rocket 3.8 00:39:57 37° SE 00:41:03 45° E 00:45:12 10° NNE
Cosmos 1758 3.3 00:37:34 10° N 00:41:42 84° E 00:42:13 66° SSE
Cosmos 1842 3.9 00:42:19 41° WNW 00:42:21 41° WNW 00:46:04 10° N
Cosmos 1656 3.9 00:41:00 41° SSE 00:42:38 59° ESE 00:48:04 10° NNE
Cosmos 1378 Rocket 3.8 00:43:15 48° WSW 00:43:44 51° WNW 00:47:58 10° N
Cosmos 1315 Rocket 2.9 00:42:58 10° N 00:46:58 72° ENE 00:47:46 54° SE
Cosmos 2251 Rocket 3.4 00:43:53 10° NNW 00:49:10 88° ENE 00:51:33 34° SSE
Cosmos 1626 4.1 00:49:57 17° ESE 00:51:19 21° E 00:54:08 10° NE
COSMOS 2455 2.8 00:46:38 10° NW 00:52:36 64° WSW 00:55:11 34° S
Okean 2 3.8 00:53:24 45° W 00:53:53 48° WNW 00:57:56 10° N
ISS -2.5 00:52:09 10° WNW 00:55:24 43° NNE 00:58:39 10° E
Cosmos 614 Rocket 4.0 00:50:41 10° NNW 00:55:48 78° ENE 00:58:46 26° SSE
Cosmos 1727 Rocket 4.2 00:55:09 36° SW 00:57:40 60° WNW 01:03:58 10° N
SeaSat 1 3.6 00:54:57 10° NNE 00:59:23 34° NW 01:01:43 22° W
KORONAS-FOTON 4.4 00:59:51 40° SE 01:00:49 51° E 01:04:38 10° NNE
SL-16 R/B 2.5 01:00:17 25° SSE 01:04:11 88° WSW 01:10:30 10° NNW
BREEZE-M DEB (TANK) 4.4 01:06:49 14° SE 01:06:49 14° SE 01:07:38 10° ESE
Okean 1 Rocket 3.9 01:01:41 10° NNW 01:05:37 33° W 01:05:54 33° W
Cosmos 2219 3.1 01:00:07 10° NNW 01:05:50 77° WSW 01:09:19 25° SSE
Cosmos 1025 Rocket 3.9 01:04:24 27° SE 01:06:16 43° E 01:10:26 10° NNE
CZ-4 R/B 4.5 01:03:07 10° N 01:07:43 44° WNW 01:09:13 33° WSW
Cosmos 1707 3.2 01:12:57 41° W 01:13:25 43° WNW 01:17:06 10° N
Cosmos 2263 Rocket 4.4 01:09:28 10° N 01:14:13 27° NE 01:18:57 10° ESE
ADEOS Rocket 4.2 01:07:39 10° SE 01:14:56 57° ENE 01:22:31 10° N
Cosmos 371 Rocket 3.2 01:14:23 40° SSW 01:16:09 84° WNW 01:21:04 10° NNE
USA 215 3.7 01:17:22 29° SSW 01:19:29 35° SW 01:25:24 10° WNW
ADEOS II 2.7 01:14:46 10° NNE 01:19:53 50° E 01:23:08 22° SSE
Cosmos 332 Rocket 3.9 01:19:00 34° S 01:21:03 70° ESE 01:25:54 10° NNE
Helios 1B rocket 2.4 01:17:07 10° NNE 01:21:16 79° WNW 01:22:33 43° SSW
ATLAS CENTAUR R/B 4.1 01:20:51 10° NW 01:21:48 11° NNW 01:22:44 10° N
NPP 3.6 01:19:48 10° NNE 01:25:14 89° W 01:28:01 30° SSW
Cosmos 1725 Rocket 3.9 01:20:06 10° N 01:26:24 88° W 01:31:00 19° S
CZ-2D R/B 2.1 01:21:09 10° N 01:26:33 73° WNW 01:29:09 31° SSW
Cosmos 1908 3.1 01:23:15 10° N 01:27:10 82° W 01:28:33 38° S
Cosmos 1459 Rocket 4.3 01:25:05 10° NNW 01:31:05 49° W 01:34:06 28° SSW
APEX 3.8 01:26:51 10° NNW 01:31:19 89° ENE 01:36:54 10° SSE
USA 281 3.6 01:28:43 26° SSW 01:31:56 44° WSW 01:38:11 10° NW
AQUA 3.8 01:28:28 10° NNE 01:33:16 89° NW 01:35:38 30° SSW
Resurs 1-4 Rocket 2.2 01:28:13 10° N 01:33:25 62° WNW 01:36:01 29° SW
Cosmos 1544 Rocket 3.5 01:29:25 10° N 01:33:49 84° W 01:36:15 26° S
Lacrosse 5 2.9 01:29:52 14° W 01:33:56 41° NNW 01:38:46 10° NE
Cosmos 2233 Rocket 4.2 01:29:27 10° N 01:35:40 73° E 01:41:48 10° SSE
Meteor 1-28 Rocket 3.9 01:33:59 14° SSE 01:36:59 53° ENE 01:40:37 10° N
Cosmos 2360 4.3 01:36:05 26° SSW 01:39:24 72° ESE 01:45:09 10° NNE
Lacrosse 4 Rocket 1.8 01:37:27 30° S 01:39:29 61° ESE 01:43:51 10° NE
Meteor 1-16 Rocket 4.4 01:34:08 10° NNW 01:39:58 61° W 01:43:40 23° S
Cosmos 1697 Rocket 2.7 01:37:11 28° SSW 01:40:18 85° ESE 01:45:57 10° NNE
Cosmos 1953 2.6 01:36:50 10° NNW 01:40:40 47° W 01:41:51 35° SW
Cosmos 2016 Rocket 4.1 01:34:31 10° NNW 01:40:40 61° W 01:44:39 22° SSW
CZ-3B R/B 3.9 01:22:11 10° WSW 01:43:31 75° NNW 01:48:10 10° NE
Cosmos 407 Rocket 3.5 01:38:24 10° NNW 01:43:46 79° WSW 01:49:07 10° SSE
Cosmos 1455 Rocket 3.6 01:39:46 10° NNW 01:43:51 40° W 01:45:16 31° SW
Cosmos 2061 Rocket 4.2 01:43:20 10° NNW 01:49:31 56° W 01:53:55 20° SSW
Landsat 4 3.7 01:46:21 10° N 01:50:05 66° WNW 01:51:42 32° SW
Timation 2 Rocket 4.3 01:44:37 10° NW 01:50:07 39° WSW 01:53:37 20° SSW
CBERS-1 4.4 01:45:46 10° NNE 01:50:51 62° ESE 01:54:51 16° S
Cosmos 1980 Rocket 2.6 01:48:51 19° S 01:52:51 59° ESE 01:58:24 10° NNE
Cosmos 1536 Rocket 3.6 01:51:33 21° S 01:54:25 79° E 01:58:53 10° NNE
USA 276 2.9 01:52:29 17° WNW 01:54:41 50° N 01:57:49 10° ENE
Cosmos 1624 Rocket 4.2 01:51:07 20° S 01:54:46 69° ESE 02:00:06 10° NNE
GP-B 3.0 01:53:18 10° N 01:57:46 88° W 02:01:03 18° S
Cosmos 2285 Rocket 4.2 01:55:41 17° S 02:00:44 71° ESE 02:07:10 10° NNE
Meteor 1-29 3.5 01:59:16 10° N 02:02:31 43° WNW 02:03:52 28° SW
Cosmos 2227 Rocket 2.9 01:57:46 10° NW 02:02:44 32° WSW 02:05:43 20° SSW
Cosmos 2297 Rocket 3.3 02:00:50 10° NW 02:05:17 24° WSW 02:07:14 20° SW
Cosmos 1674 4.0 02:06:17 21° WSW 02:07:44 27° WNW 02:11:03 10° NNW
CZ-4C R/B 3.4 02:07:23 10° S 02:11:41 78° WSW 02:15:49 10° NNW
Cosmos 1954 Rocket 4.0 02:06:40 10° NNW 02:11:58 87° ENE 02:17:17 10° SSE
Cosmos 2369 3.8 02:08:56 20° SW 02:13:02 74° WNW 02:18:49 10° NNE
Cosmos 2278 3.8 02:09:55 16° SSW 02:14:30 75° ESE 02:20:13 10° NNE
SL-14 R/B 3.4 02:12:59 21° SSW 02:15:27 60° WNW 02:19:24 10° N
Cosmos 2056 Rocket 3.4 02:12:37 18° SSW 02:16:24 81° WNW 02:21:35 10° NNE
Cosmos 2082 4.0 02:12:58 10° NW 02:18:23 46° WSW 02:23:48 10° S
Cosmos 405 3.1 02:15:01 10° N 02:18:32 73° E 02:22:01 10° SSE
Spot 1 4.3 02:14:22 10° S 02:19:03 71° WSW 02:24:02 10° NNW
IRS-1C 4.5 02:13:54 10° NNE 02:19:14 65° ESE 02:24:32 10° S
MSX 4.2 02:14:47 10° NNE 02:20:33 65° ESE 02:26:17 10° S
Cosmos 304 Rocket 4.5 02:17:54 18° WSW 02:21:04 41° WNW 02:25:38 10° N
Cosmos 1626 3.3 02:24:28 18° WSW 02:26:22 28° WNW 02:29:36 10° NNW
CZ-2C R/B 4.3 02:23:06 10° NE 02:27:35 30° E 02:32:05 10° SSE
SL-16 R/B 3.7 02:23:04 10° SSE 02:28:04 33° ESE 02:33:04 10° NE
Cosmos 1371 Rocket 4.2 02:25:13 16° SW 02:29:16 58° WNW 02:34:25 10° NNE
ISS -3.8 02:28:59 10° WNW 02:32:19 60° SSW 02:35:40 10° SE
Aureole 2 Rocket 1.6 02:31:38 10° NNW 02:34:19 81° WSW 02:37:00 10° SSE
Cosmos 220 Rocket 4.4 02:30:13 10° S 02:34:35 65° ESE 02:38:58 10° NNE
IRS-1D 4.1 02:29:45 10° N 02:34:53 49° WNW 02:39:29 13° SW
Cosmos 1300 3.3 02:33:21 10° NNW 02:36:54 38° W 02:40:15 11° SSW
Cosmos 1140 Rocket 4.3 02:34:02 10° NW 02:38:34 31° W 02:43:07 10° SSW
IDEFIX/ARIANE 42P 2.7 02:35:55 10° N 02:41:08 65° WNW 02:46:21 10° SSW
Cosmos 1891 Rocket 4.4 02:36:00 10° N 02:42:08 86° W 02:48:08 10° S
NOSS 3-2 (A) 4.5 02:39:08 10° S 02:44:13 38° ESE 02:49:59 10° NE
Cosmos 1346 Rocket 3.5 02:43:50 10° S 02:47:37 52° E 02:51:27 10° NNE
SL-16 R/B 4.1 02:45:21 11° WSW 02:48:38 16° W 02:52:19 10° NW
SL-08 R/B 3.2 02:44:15 10° S 02:48:56 73° WSW 02:53:34 10° NNW
Cosmos 389 Rocket 3.5 02:48:35 10° N 02:52:01 49° ENE 02:55:22 10° SSE
USA 32 4.4 02:47:23 10° N 02:52:40 70° E 02:57:54 10° SSE
Cosmos 1455 2.7 02:49:14 10° N 02:53:04 63° E 02:56:53 10° SSE
Meteor 2-10 Rocket 3.7 02:47:38 10° NNW 02:53:21 69° W 02:58:49 10° S
Cosmos 2322 Rocket 3.3 02:50:10 10° S 02:55:27 42° ESE 03:00:47 10° NE
COSMOS 2441 4.4 02:50:32 10° N 02:55:27 75° WNW 03:00:20 10° SSW
Cosmos 2263 Rocket 2.2 02:52:59 10° NNW 02:58:35 63° WSW 03:04:10 10° SSE
Cosmos 1892 Rocket 3.7 02:54:37 10° S 02:58:57 80° E 03:03:18 10° NNE
ADEOS II 3.3 02:54:59 10° N 02:59:18 26° WNW 03:03:35 10° WSW
IRS-P3 4.3 02:54:19 10° N 02:59:34 60° WNW 03:04:48 10° SSW
ADEOS Rocket 4.1 02:53:50 10° SSW 03:00:38 37° W 03:07:45 10° NNW
Meteor 1-24 Rocket 4.0 02:55:28 10° SSW 03:00:50 50° WNW 03:06:05 10° N
ARIANE 5 R/B 2.6 02:57:08 10° N 03:02:16 69° WNW 03:07:18 10° SSW
CZ-2D R/B 4.2 03:03:11 10° NNW 03:05:40 13° NW 03:08:08 10° W
Cosmos 2084 3.8 03:02:00 10° NW 03:06:27 78° NE 03:10:59 10° SE
Cosmos 1340 3.8 03:05:53 10° SW 03:09:07 27° WNW 03:12:24 10° N
Resurs 1-4 Rocket 4.3 03:10:48 10° NW 03:12:13 11° NW 03:13:38 10° WNW
Okean 1-7 Rocket 4.1 03:08:24 10° S 03:12:55 67° E 03:17:29 10° NNE
CZ-4B R/B 3.8 03:09:16 10° N 03:14:06 52° WNW 03:19:03 10° SW
Cosmos 1464 Rocket 4.1 03:08:10 10° NNW 03:14:10 57° W 03:20:13 10° SSW
Cosmos 2058 Rocket 3.1 03:10:31 10° N 03:15:03 81° W 03:19:33 10° S
